{"data":{"norad_id":52270,"epoch":"2026-09-19T20:33:23.411808Z","epoch_age_seconds":115110,"freshness":"FRESH","line1":"1 52270U 22041K   26262.85652097  .00000318  00000+0  20548-4 0  9999","line2":"2 52270  53.1610 310.7540 0001050  77.8389 282.2731 15.34386427243762","mean_motion":15.34386427,"eccentricity":0.000105,"inclination_deg":53.161,"raan_deg":310.754,"arg_perigee_deg":77.8389,"mean_anomaly_deg":282.2731,"bstar":2.0548e-5,"rev_number":24376,"period_min":93.848588247451,"perigee_km":462.02528985972,"apogee_km":463.46187478201,"semimajor_km":6840.8805823209,"source":"CELESTRAK","updated_at":"2026-09-20T09:00:40.012572Z"}}